Wind_Speed
2 2 2 2 3 3 3 3 3 3 3 4 4 5 6 7 8 8 8 8 7 6 5 3 1 2 4 2 2 3 3 3 2 2 1 2 2 1 1 3 3 7 8 8 8 11 11
3 1 0 1 2 2 3 3 2 2 2 3 4 5 6 7 8 8 9 8 7 6 4 2 1 2 2 3 2 3 3 4 2 2 2 3 1 2 4 3 3 5 9 10 7 7 12
4 4 3 2 2 3 3 3 2 3 3 3 4 6 6 7 8 9 9 8 6 5 4 2 2 4 6 3 1 2 3 3 2 2 2 3 5 2 3 5 5 7 6 6 7 10 5
7 5 5 4 3 3 3 3 3 2 3 3 4 5 7 8 8 8 8 7 5 4 3 2 3 4 3 3 4 4 3 3 2 2 3 3 6 4 2 6 4 5 3 6 8 11 4
8 7 7 5 4 4 3 3 3 3 3 4 4 5 6 8 8 8 8 6 4 3 3 3 3 4 3 3 3 4 3 2 3 2 3 4 3 3 5 5 6 6 6 10 6 13 7
9 8 8 6 5 5 4 4 3 3 4 4 5 6 6 7 8 8 7 4 3 4 3 5 6 3 3 2 3 3 2 1 1 2 1 1 2 4 5 6 4 4 7 5 8 10 11
9 9 8 8 6 5 5 5 4 4 3 4 4 5 6 6 6 5 6 1 1 2 9 6 3 3 3 2 6 5 2 2 1 2 3 1 5 6 3 3 5 6 7 9 2 4 8
10 10 9 8 7 7 6 5 5 4 5 5 5 5 5 6 5 5 3 1 1 5 6 7 5 4 3 2 1 6 3 2 2 2 3 4 5 3 1 1 4 6 8 9 2 3 5
11 11 10 9 8 7 6 6 5 5 5 5 5 6 6 6 3 3 2 2 3 5 1 3 3 2 1 3 2 5 5 3 2 2 2 5 6 3 2 2 4 6 8 8 7 2 8
11 11 10 10 9 8 7 6 6 6 6 6 5 6 6 5 1 4 2 2 2 2 3 3 2 0 0 1 1 3 4 2 1 3 3 4 4 2 3 5 4 8 5 3 6 5 6
11 10 10 10 10 9 8 8 6 6 6 6 6 5 5 3 3 2 2 2 1 2 1 3 2 1 1 2 1 0 2 0 2 1 2 1 1 2 5 3 2 2 1 3 6 10 10
13 11 10 8 8 9 9 9 8 7 6 5 5 4 5 4 3 2 2 2 1 3 5 4 2 3 2 1 1 2 1 1 2 2 3 1 1 2 2 1 2 2 4 8 5 7 7
18 16 13 11 9 8 8 8 7 7 6 6 5 4 3 3 3 2 2 1 2 3 1 4 2 2 2 2 2 1 1 4 3 1 5 4 4 2 2 4 3 4 5 3 5 4 6
24 22 17 15 12 10 9 7 7 7 6 5 6 6 5 4 4 2 1 3 4 2 2 2 2 2 3 2 2 2 2 4 3 3 3 4 4 5 3 2 3 7 5 5 7 8 13
29 27 24 21 18 15 12 9 8 7 6 5 5 6 6 5 4 3 2 3 2 1 3 5 3 4 4 3 2 3 4 2 4 1 4 2 2 3 3 2 2 4 6 4 6 13 12
21 28 27 25 23 20 17 13 10 8 7 6 5 6 8 7 6 6 3 3 2 2 3 1 4 3 4 5 4 3 5 2 2 2 3 4 5 2 2 1 2 4 4 4 3 6 10
9 13 16 19 21 22 21 17 15 11 8 7 5 4 5 5 7 3 4 2 3 2 1 3 2 3 4 2 5 3 2 3 1 3 0 2 1 4 1 6 3 4 4 4 3 4 5
10 13 16 11 16 19 18 17 19 15 11 9 5 4 5 9 4 3 4 1 2 3 2 2 2 3 3 2 4 4 3 2 3 5 4 3 2 6 5 3 2 2 3 4 6 10 11
21 24 22 15 12 11 13 14 14 16 14 9 4 3 5 10 4 5 2 3 2 4 4 4 4 3 2 4 4 5 4 3 3 4 2 4 5 4 5 2 2 4 5 8 4 2 16
23 23 29 15 18 16 13 12 13 12 13 14 4 3 2 7 3 4 3 3 4 1 3 3 2 4 4 5 6 2 6 3 3 4 2 2 3 9 12 14 2 7 8 9 10 7 16
21 22 23 29 22 26 20 14 17 19 16 14 6 4 5 4 7 7 4 3 4 4 3 5 3 10 6 4 4 5 5 4 3 4 3 3 6 9 12 13 10 12 13 14 17 19 14
19 21 23 23 29 32 28 18 16 22 19 20 6 5 4 3 5 9 4 6 8 3 6 5 6 3 9 6 4 2 5 5 4 7 6 4 3 2 6 12 8 12 15 17 18 18 20
14 16 18 22 25 33 25 26 26 25 22 15 16 8 5 7 7 6 5 5 6 9 2 1 4 5 6 4 3 3 3 2 0 3 9 4 3 2 6 2 8 13 10 8 11 1 4
12 12 12 19 24 26 33 28 27 28 26 27 17 11 5 3 6 6 5 7 6 7 2 4 3 4 4 8 9 7 5 2 2 1 3 4 6 3 4 4 6 4 4 4 4 1 1
14 11 11 14 19 25 26 28 28 22 29 26 22 15 8 3 4 5 10 5 8 6 3 4 2 3 12 7 2 3 3 3 3 0 3 2 6 3 4 6 8 4 2 2 2 4 3
13 12 12 13 14 19 22 26 25 24 24 25 24 19 8 6 5 4 9 11 5 6 5 3 5 9 7 5 3 4 5 1 4 4 1 3 3 5 3 5 5 5 6 4 4 5 7
12 11 11 13 14 14 19 20 22 17 20 20 19 28 16 5 6 10 4 4 6 6 3 6 8 6 4 4 4 4 5 1 4 5 6 4 5 11 9 6 2 7 9 5 2 2 9
10 9 12 14 16 13 17 20 20 17 14 20 21 20 21 8 8 9 7 5 4 7 4 10 7 4 4 5 4 4 4 4 3 1 4 7 7 5 5 6 8 13 7 4 4 4 2
7 8 10 12 16 15 16 18 16 15 16 18 17 19 21 9 6 7 8 8 10 10 5 13 1 5 8 4 1 2 3 2 3 3 2 5 3 1 5 0 5 16 3 4 2 1 3
Wind_Direction
131 114 74 50 27 19 15 14 19 17 15 18 2 1 4 5 358 355 353 354 354 351 350 331 282 184 146 125 52 335 354 10 21 18 9 6 333 302 197 100 84 103 116 99 94 106 102
182 199 234 340 348 347 354 356 1 349 1 349 348 352 356 357 351 352 352 350 1 1 359 356 209 170 152 216 339 349 19 35 32 58 25 44 70 95 104 75 345 114 133 127 132 114 130
219 218 240 270 303 315 326 332 343 338 344 339 337 340 351 350 348 349 349 348 4 9 13 35 115 118 75 118 63 17 37 40 48 135 51 128 130 12 126 125 118 140 133 145 171 164 135
245 243 248 253 261 285 302 313 316 320 326 328 328 336 342 347 347 347 348 348 358 16 24 50 103 107 84 103 72 45 64 33 53 87 116 125 120 103 71 123 137 189 220 207 154 181 150
240 242 250 255 271 282 293 307 308 317 323 324 327 337 338 341 343 350 351 350 3 14 46 53 72 115 93 88 24 24 45 75 84 67 106 120 106 130 145 206 190 198 253 218 159 195 156
252 248 249 250 255 276 286 294 300 312 317 318 328 335 335 339 344 348 350 345 39 66 60 80 71 126 59 330 347 358 338 113 79 103 85 184 197 208 205 214 241 258 231 218 239 184 208
232 245 253 258 255 254 269 285 296 298 299 308 323 328 333 339 344 349 349 346 10 90 57 75 37 72 49 2 31 358 26 80 142 227 227 173 233 215 209 269 321 294 274 262 160 143 233
234 231 240 248 258 266 271 279 286 291 298 308 313 317 328 337 344 354 356 220 106 151 91 65 69 73 61 61 327 12 31 303 237 215 197 201 237 61 124 206 249 248 255 260 139 166 247
232 234 239 242 245 254 267 275 285 296 300 302 306 313 321 328 319 352 25 77 115 129 129 71 75 55 37 50 29 353 26 338 330 216 231 286 57 120 224 201 254 252 273 293 277 306 243
226 230 235 240 244 246 247 260 279 289 290 294 302 310 318 324 267 334 354 48 105 138 211 117 147 299 52 117 176 12 29 35 226 319 321 318 75 229 247 263 279 281 21 285 271 264 271
232 229 228 235 241 249 256 258 259 270 285 294 302 307 308 312 294 306 315 0 37 122 320 118 124 249 342 289 91 232 25 99 298 353 266 83 214 218 248 288 262 359 343 257 259 260 281
234 234 236 236 239 243 242 251 258 261 267 275 286 302 308 298 290 309 322 348 100 222 249 160 161 169 205 202 212 312 181 100 138 235 232 300 158 251 322 125 246 101 252 235 254 258 257
233 230 234 233 238 246 247 247 254 260 269 275 275 268 266 262 263 280 322 53 243 239 62 157 176 201 276 184 187 306 245 195 255 235 217 175 204 120 247 241 187 232 269 285 224 203 250
233 233 232 237 235 241 242 242 249 254 258 266 278 279 264 248 232 225 217 217 245 27 181 93 130 161 238 177 178 200 217 228 215 242 281 236 233 187 142 259 342 205 271 262 289 286 297
245 237 233 235 235 237 242 239 245 252 260 258 264 264 269 253 230 203 204 225 276 156 111 161 157 221 191 197 268 233 226 319 43 263 256 274 204 123 39 355 316 145 218 13 291 275 279
247 249 248 246 236 233 235 236 235 247 254 259 263 272 258 246 217 182 239 256 183 69 118 185 241 213 243 173 220 213 185 67 116 12 348 31 280 26 79 260 212 272 349 250 214 290 285
257 243 254 257 255 248 241 234 236 237 244 245 247 256 224 192 161 187 221 196 140 127 181 242 278 248 249 231 249 248 6 99 35 125 7 312 259 116 203 202 289 182 221 225 300 266 262
255 241 241 249 266 254 248 250 233 232 226 225 221 240 218 176 190 218 228 130 132 151 174 211 282 281 258 190 224 234 239 76 155 173 186 161 260 259 257 94 13 294 281 265 242 259 246
241 259 266 223 249 265 256 256 249 227 208 195 218 229 204 178 232 213 131 154 176 162 186 178 198 243 230 215 235 214 196 157 183 203 203 165 210 278 180 188 188 234 213 247 283 294 250
230 233 255 257 271 252 247 268 246 238 225 191 205 197 176 189 251 300 198 212 186 191 158 190 165 186 198 225 235 219 195 144 175 192 173 182 258 251 265 295 330 239 216 230 226 244 266
228 231 233 240 254 262 248 242 285 245 218 194 210 229 191 179 211 197 200 130 185 203 216 201 200 228 206 235 232 227 197 158 182 182 185 244 253 258 272 283 278 269 265 249 234 248 261
236 236 238 238 241 241 258 241 262 272 236 202 199 184 185 166 145 166 177 198 209 167 169 208 231 196 211 233 253 242 183 201 197 182 199 191 271 285 268 256 272 269 259 252 255 267 267
235 237 235 233 237 237 231 232 245 240 241 210 219 218 171 171 172 192 194 188 196 145 180 32 227 194 215 243 109 94 75 68 189 189 200 199 244 245 273 26 307 274 271 260 242 95 306
238 241 246 243 233 230 230 230 233 249 236 231 212 188 171 227 202 209 168 170 170 185 154 156 171 198 151 134 113 97 88 94 181 179 275 218 215 257 290 312 254 77 88 64 33 77 125
244 244 249 258 250 236 230 229 236 245 244 232 219 204 176 222 180 172 162 147 131 132 125 153 130 129 144 136 192 203 193 222 179 279 206 252 219 255 257 244 293 168 167 148 171 164 146
246 251 258 264 263 245 232 229 230 243 231 236 220 204 179 150 209 112 158 185 164 174 147 117 107 137 159 202 192 235 244 222 188 165 174 182 261 224 179 263 271 81 130 99 85 259 161
244 251 260 266 267 246 226 220 241 242 231 221 223 215 198 191 175 158 169 174 166 176 128 142 155 150 175 187 209 219 237 345 225 204 173 169 206 219 230 253 254 145 143 138 175 97 163
247 262 265 263 255 242 222 224 240 235 232 222 218 210 193 177 176 188 175 149 162 180 171 141 127 170 168 203 220 204 244 189 215 148 190 182 188 196 213 229 249 153 138 223 95 138 226
254 263 274 264 243 228 205 223 228 238 235 231 213 200 194 185 156 179 187 189 191 180 144 171 93 137 160 182 239 217 210 180 234 227 197 219 249 262 224 200 108 172 89 153 153 284 265
Height
1551 1551 1550 1550 1549 1549 1548 1547 1546 1545 1544 1543 1542 1540 1539 1538 1537 1536 1534 1532 1530 1529 1527 1527 1527 1527 1527 1530 1531 1529 1528 1527 1527 1527 1527 1528 1528 1529 1526 1528 1530 1529 1535 1538 1540 1541 1544
1551 1551 1550 1550 1549 1549 1547 1546 1545 1545 1544 1543 1542 1540 1539 1538 1537 1536 1533 1532 1530 1529 1527 1527 1527 1527 1528 1530 1531 1529 1529 1528 1527 1527 1528 1528 1528 1529 1530 1531 1531 1534 1535 1539 1542 1544 1547
1550 1550 1550 1549 1549 1548 1548 1546 1545 1545 1544 1543 1542 1541 1539 1538 1537 1535 1533 1531 1530 1528 1528 1527 1527 1528 1530 1531 1530 1529 1529 1528 1527 1527 1529 1528 1528 1531 1531 1532 1535 1536 1537 1540 1541 1543 1547
1550 1550 1549 1548 1547 1547 1547 1546 1545 1544 1544 1543 1541 1540 1539 1538 1537 1535 1533 1531 1530 1528 1528 1528 1528 1528 1531 1531 1530 1530 1529 1529 1528 1528 1529 1529 1529 1531 1532 1535 1536 1534 1535 1535 1537 1542 1547
1549 1549 1549 1548 1548 1547 1547 1546 1545 1544 1544 1543 1541 1540 1538 1537 1536 1535 1533 1530 1529 1529 1528 1528 1529 1529 1533 1532 1532 1530 1530 1530 1529 1529 1530 1530 1531 1532 1533 1530 1530 1531 1526 1527 1537 1540 1543
1549 1549 1548 1547 1547 1547 1547 1546 1544 1544 1543 1543 1541 1539 1538 1537 1535 1534 1532 1531 1530 1529 1528 1529 1530 1533 1535 1535 1532 1531 1530 1530 1530 1530 1532 1532 1532 1528 1528 1527 1526 1520 1527 1526 1526 1535 1538
1546 1547 1548 1547 1547 1546 1546 1545 1544 1543 1542 1541 1539 1538 1538 1536 1535 1534 1532 1531 1533 1533 1529 1532 1534 1534 1534 1534 1533 1533 1531 1530 1530 1531 1528 1532 1529 1524 1519 1524 1527 1525 1525 1523 1523 1534 1534
1545 1545 1546 1546 1546 1546 1545 1545 1544 1542 1542 1540 1539 1537 1536 1535 1534 1533 1531 1531 1530 1531 1533 1533 1533 1534 1534 1534 1535 1534 1532 1534 1531 1527 1531 1530 1524 1527 1531 1531 1531 1528 1526 1524 1525 1535 1536
1543 1544 1544 1544 1544 1544 1544 1543 1543 1541 1540 1539 1538 1537 1536 1534 1533 1532 1530 1530 1529 1529 1530 1535 1534 1534 1535 1535 1535 1535 1534 1533 1531 1530 1529 1525 1528 1533 1533 1532 1532 1529 1529 1525 1532 1535 1534
1541 1541 1542 1542 1542 1542 1541 1541 1541 1540 1539 1538 1537 1536 1535 1533 1534 1531 1530 1529 1529 1528 1525 1534 1534 1535 1535 1534 1535 1534 1534 1536 1534 1531 1532 1529 1535 1535 1534 1533 1533 1531 1533 1535 1536 1539 1532
1539 1539 1539 1539 1539 1539 1539 1539 1538 1538 1537 1536 1535 1535 1534 1533 1532 1531 1531 1528 1528 1529 1535 1536 1535 1534 1534 1536 1535 1534 1534 1534 1532 1532 1536 1532 1535 1536 1535 1532 1536 1532 1537 1536 1535 1534 1530
1536 1537 1537 1537 1537 1537 1537 1537 1537 1536 1535 1535 1534 1533 1533 1533 1531 1531 1529 1529 1530 1529 1538 1531 1533 1533 1534 1534 1534 1534 1534 1534 1534 1534 1534 1533 1538 1537 1533 1538 1538 1539 1538 1535 1535 1534 1536
1532 1534 1535 1535 1535 1535 1534 1534 1534 1534 1533 1533 1532 1531 1531 1531 1531 1529 1528 1529 1529 1529 1532 1530 1530 1532 1532 1531 1533 1534 1534 1532 1531 1537 1527 1532 1533 1538 1540 1538 1540 1541 1538 1533 1528 1536 1521
1527 1529 1530 1532 1532 1533 1533 1532 1532 1532 1531 1531 1531 1530 1529 1529 1528 1528 1528 1529 1532 1523 1522 1531 1530 1533 1531 1532 1532 1533 1532 1528 1536 1535 1529 1528 1530 1536 1540 1537 1535 1536 1533 1529 1525 1511 1503
1521 1523 1525 1527 1528 1529 1530 1530 1530 1530 1530 1529 1529 1528 1528 1528 1528 1528 1530 1526 1516 1517 1523 1527 1531 1530 1528 1532 1533 1532 1529 1528 1534 1538 1532 1527 1526 1540 1543 1543 1543 1537 1539 1536 1531 1516 1511
1515 1517 1519 1522 1524 1525 1527 1527 1527 1528 1528 1528 1527 1527 1525 1525 1525 1527 1527 1521 1520 1525 1527 1527 1522 1523 1520 1526 1531 1529 1523 1537 1539 1543 1544 1536 1532 1542 1545 1545 1544 1542 1542 1537 1535 1534 1522
1510 1511 1515 1516 1518 1520 1521 1523 1524 1525 1526 1526 1526 1526 1523 1523 1524 1527 1522 1518 1523 1528 1529 1528 1522 1522 1521 1523 1527 1524 1524 1542 1541 1543 1544 1542 1541 1542 1544 1540 1531 1541 1538 1541 1541 1533 1539
1507 1508 1509 1511 1514 1515 1517 1518 1520 1521 1522 1523 1524 1524 1521 1522 1525 1522 1517 1521 1525 1526 1529 1530 1530 1528 1525 1527 1526 1526 1526 1535 1541 1541 1538 1539 1534 1530 1526 1543 1545 1542 1536 1536 1534 1530 1526
1504 1502 1507 1507 1509 1512 1512 1514 1515 1515 1518 1520 1520 1520 1519 1521 1517 1517 1523 1524 1524 1526 1526 1529 1528 1530 1532 1527 1528 1525 1531 1541 1542 1542 1540 1541 1534 1529 1527 1543 1545 1543 1537 1539 1539 1542 1532
1498 1496 1502 1504 1504 1507 1510 1512 1512 1514 1514 1516 1517 1517 1519 1519 1520 1517 1519 1520 1523 1526 1526 1528 1529 1530 1530 1529 1529 1527 1532 1542 1543 1542 1544 1544 1536 1527 1522 1518 1534 1532 1536 1539 1539 1534 1521
1492 1494 1492 1498 1500 1502 1504 1506 1510 1510 1510 1515 1513 1511 1511 1512 1513 1514 1518 1520 1522 1523 1527 1528 1529 1527 1526 1525 1528 1528 1530 1542 1544 1544 1544 1544 1535 1529 1527 1528 1531 1535 1533 1530 1535 1532 1532
1485 1486 1487 1489 1494 1496 1500 1502 1504 1507 1507 1510 1509 1509 1510 1512 1512 1513 1517 1516 1517 1521 1523 1525 1525 1523 1524 1524 1522 1524 1529 1533 1531 1542 1542 1542 1533 1537 1537 1528 1532 1534 1528 1527 1529 1531 1529
1480 1481 1481 1484 1490 1491 1494 1498 1497 1501 1504 1502 1505 1505 1505 1509 1509 1510 1508 1511 1514 1517 1522 1523 1523 1525 1525 1526 1530 1533 1534 1535 1534 1534 1537 1538 1536 1539 1526 1538 1536 1524 1522 1526 1526 1539 1543
1476 1475 1473 1481 1484 1486 1488 1491 1493 1494 1497 1499 1500 1503 1506 1504 1506 1505 1507 1510 1513 1516 1517 1523 1524 1524 1528 1528 1531 1534 1536 1537 1536 1537 1536 1535 1537 1539 1533 1538 1527 1539 1540 1540 1538 1544 1551
1474 1471 1472 1477 1478 1479 1482 1485 1488 1488 1491 1493 1495 1499 1500 1503 1502 1504 1506 1510 1513 1515 1520 1523 1525 1524 1526 1531 1531 1529 1532 1537 1537 1540 1539 1540 1536 1537 1538 1526 1514 1541 1541 1539 1539 1541 1552
1470 1468 1469 1472 1473 1473 1476 1480 1482 1484 1486 1488 1489 1495 1497 1499 1500 1499 1504 1507 1509 1513 1520 1523 1523 1526 1529 1529 1527 1523 1516 1516 1529 1539 1542 1542 1541 1538 1538 1538 1517 1534 1544 1546 1547 1537 1550
1466 1464 1464 1467 1469 1468 1470 1474 1478 1480 1483 1484 1484 1490 1492 1498 1497 1498 1502 1505 1506 1509 1511 1519 1523 1526 1530 1527 1523 1520 1520 1526 1520 1523 1535 1538 1539 1537 1533 1533 1523 1541 1544 1545 1542 1543 1550
1460 1458 1460 1461 1464 1463 1465 1471 1475 1477 1477 1480 1483 1485 1489 1492 1495 1497 1498 1502 1505 1506 1509 1518 1521 1523 1527 1527 1522 1518 1521 1521 1523 1520 1526 1525 1530 1534 1532 1532 1527 1540 1545 1543 1546 1547 1549
1456 1455 1455 1453 1455 1459 1461 1470 1473 1474 1475 1479 1481 1483 1485 1490 1495 1497 1498 1499 1503 1505 1508 1511 1512 1512 1515 1518 1522 1521 1524 1526 1518 1514 1530 1527 1521 1519 1523 1522 1535 1537 1540 1541 1543 1546 1548